EW1196 Weather Reports


time (UTC)temp
C
wind
direction
speed
KPH
gust
KPH
rain 1hr
cm
rain 24hr
cm
rain mn
cm
humidity
%
barometer
mb
20260505111504 12 201 3.2 4.8 0.03 0.71 0.66 86 1006.4
20260505111004 12 201 1.6 4.8 0.03 0.69 0.64 86 1006.2
20260505110504 12 178 1.6 3.2 0.03 0.69 0.64 86 1006.2
20260505102004 13 229 1.6 4.8 0.25 0.69 0.64 86 1006.2
20260505101505 13 229 0.0 3.2 0.33 0.69 0.64 86 1006.4
20260505101004 13 229 0.0 1.6 0.36 0.66 0.61 86 1006.6
20260505100504 13 229 1.6 3.2 0.43 0.66 0.61 86 1006.6
20260505100004 13 229 1.6 3.2 0.46 0.66 0.61 86 1006.5
20260505095004 13 232 1.6 4.8 0.48 0.64 0.58 86 1007.0
20260505094505 13 234 0.0 4.8 0.51 0.64 0.58 86 1007.4
20260505093504 13 340 3.2 4.8 0.51 0.58 0.53 85 1007.3
20260505093004 13 308 1.6 4.8 0.46 0.53 0.48 85 1007.5
20260505092504 13 342 1.6 4.8 0.38 0.46 0.41 85 1007.6
20260505092004 13 325 4.8 12.9 0.36 0.43 0.38 85 1007.5
20260505091504 14 325 6.4 14.5 0.28 0.36 0.30 84 1007.5
20260505091005 14 326 6.4 19.3 0.23 0.30 0.25 84 1007.5
20260505090504 14 322 6.4 14.5 0.15 0.23 0.18 83 1007.5
20260505090004 14 323 1.6 8.0 0.13 0.20 0.15 83 1007.3
20260505085504 15 331 3.2 12.9 0.10 0.18 0.13 82 1007.2
20260505085005 15 306 1.6 4.8 0.08 0.15 0.10 81 1007.1
20260505084505 15 315 3.2 8.0 0.05 0.13 0.08 81 1006.9
20260505084004 15 342 4.8 12.9 0.03 0.10 0.05 80 1006.4
20260505083504 15 5 3.2 8.0 0.00 0.08 0.03 79 1006.3
20260505083005 15 301 1.6 9.7 0.00 0.08 0.03 78 1006.0
20260505082504 16 298 14.5 27.4 0.00 0.08 0.03 77 1006.4
20260505081504 16 296 0.0 3.2 0.00 0.08 0.03 74 1005.4
20260505081004 16 296 1.6 3.2 0.00 0.08 0.03 73 1005.2
20260505080505 17 296 1.6 3.2 0.00 0.08 0.03 72 1004.9
20260505080005 17 296 0.0 1.6 0.00 0.08 0.03 68 1004.5
20260505075504 17 296 0.0 1.6 0.00 0.08 0.03 67 1004.5
20260505075005 17 296 1.6 9.7 0.00 0.08 0.03 66 1004.8
20260505074504 18 22 3.2 4.8 0.00 0.08 0.03 64 1004.9
20260505074004 18 340 3.2 9.7 0.00 0.08 0.03 64 1005.3
20260505073504 18 258 1.6 4.8 0.00 0.08 0.03 63 1005.3
20260505072505 18 226 3.2 4.8 0.00 0.08 0.03 62 1005.0
20260505072004 18 231 3.2 11.3 0.00 0.08 0.03 62 1005.0
20260505071504 18 254 4.8 9.7 0.00 0.08 0.03 61 1005.0
20260505065504 18 217 4.8 12.9 0.00 0.08 0.03 60 1004.8
20260505065004 18 202 8.0 14.5 0.00 0.08 0.03 60 1004.8
20260505064504 18 188 6.4 16.1 0.00 0.08 0.03 60 1004.8
20260505064005 18 199 8.0 19.3 0.00 0.08 0.03 59 1004.7
20260505063004 19 217 9.7 19.3 0.00 0.08 0.03 59 1004.7
20260505062504 19 185 8.0 19.3 0.00 0.08 0.03 59 1004.4
20260505061505 19 198 11.3 20.9 0.00 0.08 0.03 59 1004.1
20260505061004 19 212 8.0 19.3 0.00 0.08 0.03 59 1004.1
20260505060505 18 192 9.7 22.5 0.00 0.08 0.03 59 1004.2
20260505060004 18 190 6.4 19.3 0.00 0.08 0.03 59 1004.2
20260505055505 18 234 8.0 20.9 0.00 0.08 0.03 59 1004.1
20260505055004 18 198 9.7 19.3 0.00 0.08 0.03 59 1004.1
20260505054505 19 231 8.0 19.3 0.00 0.08 0.03 59 1004.1
20260505054004 19 198 6.4 12.9 0.00 0.08 0.03 58 1004.0
20260505053005 19 204 12.9 32.2 0.00 0.08 0.03 59 1003.7
20260505052504 19 179 8.0 22.5 0.00 0.08 0.03 58 1003.7
20260505052005 19 196 9.7 24.1 0.00 0.08 0.03 58 1003.7
20260505051504 19 185 8.0 20.9 0.00 0.08 0.03 58 1003.6
20260505051004 19 217 6.4 14.5 0.00 0.08 0.03 59 1003.6
20260505050505 19 205 9.7 20.9 0.03 0.08 0.03 59 1003.6
20260505041504 18 206 9.7 25.7 0.03 0.08 0.03 65 1003.8
20260505041005 19 204 9.7 22.5 0.03 0.08 0.03 63 1003.8
20260505040504 19 172 11.3 22.5 0.00 0.05 0.00 59 1003.7
20260505040005 19 202 11.3 25.7 0.00 0.05 0.00 60 1004.1
20260505035505 18 212 8.0 14.5 0.00 0.05 0.05 61 1004.3
20260505035004 18 190 9.7 19.3 0.00 0.05 0.05 62 1004.3
20260505034504 18 219 4.8 14.5 0.00 0.05 0.05 63 1004.3
20260505034004 18 190 8.0 19.3 0.00 0.05 0.05 63 1004.3
20260505033505 18 198 6.4 14.5 0.00 0.05 0.05 64 1004.3
20260505033004 18 220 4.8 9.7 0.00 0.05 0.05 63 1004.4
20260505032004 18 182 3.2 9.7 0.00 0.05 0.05 63 1004.5
20260505031505 18 153 6.4 12.9 0.00 0.05 0.05 62 1004.5
20260505031005 18 226 4.8 8.0 0.00 0.05 0.05 63 1004.5
20260505030504 18 212 4.8 12.9 0.00 0.05 0.05 62 1004.5
20260505030004 19 215 3.2 12.9 0.00 0.05 0.05 62 1004.5
20260505025504 19 195 3.2 4.8 0.00 0.05 0.05 62 1004.4
20260505025004 19 197 4.8 9.7 0.00 0.05 0.05 62 1004.4
20260505024505 19 227 3.2 12.9 0.00 0.05 0.05 61 1004.4
20260505023504 19 215 3.2 9.7 0.00 0.05 0.05 61 1004.3
20260505023004 19 199 4.8 8.0 0.00 0.05 0.05 61 1004.2
20260505022004 19 186 4.8 8.0 0.00 0.05 0.05 61 1004.0
20260505021504 19 222 3.2 9.7 0.00 0.05 0.05 61 1003.9
20260505021005 19 174 4.8 12.9 0.00 0.05 0.05 61 1003.9
20260505020504 19 224 4.8 12.9 0.00 0.05 0.05 62 1003.8
20260505020004 19 237 6.4 11.3 0.00 0.05 0.05 62 1003.6
20260505015004 19 195 3.2 4.8 0.00 0.05 0.05 63 1003.4
20260505014504 19 195 3.2 8.0 0.00 0.05 0.05 62 1003.3
20260505013504 19 209 1.6 11.3 0.00 0.05 0.05 62 1003.2
20260505013005 19 203 3.2 8.0 0.00 0.05 0.05 61 1003.2
20260505012504 20 191 1.6 4.8 0.00 0.05 0.05 61 1003.2
20260505012004 20 188 1.6 4.8 0.00 0.05 0.05 60 1003.2
20260505011504 20 281 1.6 9.7 0.00 0.05 0.05 59 1003.2
20260505011005 20 221 3.2 11.3 0.00 0.05 0.05 59 1003.1
20260505010504 20 212 4.8 12.9 0.00 0.05 0.05 59 1003.1
20260505010004 20 219 4.8 9.7 0.00 0.05 0.05 58 1003.1
20260505005504 20 190 3.2 9.7 0.00 0.05 0.05 58 1003.1
20260505004504 21 202 4.8 11.3 0.00 0.05 0.05 56 1003.2
20260505004004 21 240 3.2 12.9 0.00 0.05 0.05 56 1003.3
20260505003505 21 194 4.8 11.3 0.00 0.05 0.05 56 1003.3
20260505003005 21 177 4.8 12.9 0.00 0.05 0.05 55 1003.2
20260505002504 21 194 6.4 20.9 0.00 0.05 0.05 55 1003.2
20260505002004 21 229 4.8 14.5 0.00 0.05 0.05 55 1003.2
20260505001504 21 171 4.8 12.9 0.00 0.05 0.05 56 1003.2
20260505001005 21 202 6.4 12.9 0.00 0.05 0.05 57 1003.2
20260505000004 21 217 4.8 12.9 0.00 0.05 0.05 56 1003.3
20260504235504 21 211 8.0 14.5 0.00 0.05 0.05 55 1003.4
20260504235004 22 182 4.8 16.1 0.00 0.05 0.05 56 1003.5
20260504234505 22 205 8.0 16.1 0.00 0.05 0.05 54 1003.6
20260504234005 22 227 4.8 12.9 0.00 0.05 0.05 54 1003.6
20260504233504 22 194 4.8 11.3 0.00 0.05 0.05 54 1003.7
20260504233004 22 220 6.4 19.3 0.00 0.05 0.05 53 1003.7
20260504232504 22 192 6.4 12.9 0.00 0.05 0.05 52 1003.8
20260504231004 23 190 4.8 19.3 0.00 0.05 0.05 51 1004.1
20260504230504 22 221 11.3 22.5 0.00 0.05 0.05 50 1004.2
20260504225505 22 216 9.7 25.7 0.00 0.05 0.05 51 1004.3
20260504225004 22 203 8.0 19.3 0.00 0.05 0.05 50 1004.3
20260504224505 22 209 8.0 22.5 0.00 0.05 0.05 50 1004.3
20260504224004 23 192 16.1 29.0 0.00 0.05 0.05 48 1004.2
20260504223505 23 193 11.3 33.8 0.00 0.05 0.05 48 1004.3
20260504223004 23 200 8.0 33.8 0.00 0.05 0.05 49 1004.4
20260504222004 23 207 9.7 32.2 0.00 0.05 0.05 49 1004.4
20260504221004 22 249 6.4 19.3 0.00 0.05 0.05 57 1004.5
20260504220504 22 153 1.6 4.8 0.00 0.05 0.05 59 1004.5
20260504220004 22 148 1.6 4.8 0.00 0.05 0.05 55 1004.5
20260504215504 22 210 1.6 4.8 0.00 0.05 0.05 55 1004.6
20260504214004 22 198 1.6 9.7 0.00 0.05 0.05 57 1004.5
20260504213505 22 207 4.8 9.7 0.00 0.05 0.05 55 1004.4
20260504213004 22 204 1.6 8.0 0.00 0.05 0.05 56 1004.5
20260504212504 22 214 1.6 8.0 0.00 0.05 0.05 55 1004.6
20260504212004 22 204 3.2 12.9 0.00 0.05 0.05 54 1004.7
20260504211504 22 221 9.7 14.5 0.00 0.05 0.05 53 1004.9
20260504211005 22 187 6.4 14.5 0.00 0.05 0.05 53 1005.3
20260504205005 22 223 8.0 19.3 0.00 0.05 0.05 54 1005.7
20260504204004 22 207 9.7 19.3 0.00 0.05 0.05 55 1005.8
20260504203504 22 228 6.4 16.1 0.00 0.05 0.05 54 1005.9
20260504203004 22 233 8.0 25.7 0.00 0.05 0.05 58 1005.8
20260504202504 22 203 9.7 19.3 0.00 0.05 0.05 57 1005.8
20260504201505 21 208 9.7 19.3 0.00 0.05 0.05 61 1005.9
20260504201004 21 251 11.3 20.9 0.03 0.05 0.05 60 1005.9
20260504200005 21 224 9.7 20.9 0.03 0.05 0.05 64 1006.3
20260504195504 20 225 3.2 9.7 0.03 0.05 0.05 70 1006.3
20260504195005 20 233 9.7 16.1 0.03 0.05 0.05 67 1006.5
20260504194504 20 225 8.0 16.1 0.03 0.05 0.05 68 1006.4
20260504194004 19 206 8.0 19.3 0.05 0.05 0.05 71 1006.5
20260504193505 19 195 3.2 11.3 0.05 0.05 0.05 73 1006.5
20260504193005 18 208 8.0 14.5 0.05 0.05 0.05 74 1006.6
20260504192505 18 155 4.8 9.7 0.05 0.05 0.05 78 1006.6
20260504192004 17 178 1.6 4.8 0.05 0.05 0.05 78 1006.7
20260504191504 17 219 3.2 8.0 0.05 0.05 0.05 78 1006.9
20260504191004 17 249 3.2 9.7 0.03 0.03 0.03 78 1006.9
20260504190505 17 204 3.2 8.0 0.03 0.03 0.03 77 1007.0
20260504190005 17 202 8.0 12.9 0.03 0.03 0.03 77 1007.1
20260504185504 17 213 8.0 12.9 0.03 0.03 0.03 76 1007.0
20260504185005 17 143 3.2 4.8 0.03 0.03 0.03 76 1006.7
20260504184504 17 276 3.2 9.7 0.03 0.03 0.03 75 1007.7
20260504184004 17 189 4.8 12.9 0.00 0.00 0.00 73 1007.5
20260504183004 18 190 4.8 11.3 0.00 0.00 0.00 70 1007.2
20260504182504 18 188 4.8 11.3 0.00 0.00 0.00 69 1007.4
20260504182004 18 194 6.4 16.1 0.00 0.00 0.00 67 1007.7
20260504181505 18 206 6.4 16.1 0.00 0.00 0.00 66 1007.6
20260504181005 18 222 8.0 19.3 0.00 0.00 0.00 66 1007.3
20260504180504 18 210 4.8 12.9 0.00 0.00 0.00 66 1007.2
20260504180005 18 206 8.0 19.3 0.00 0.00 0.00 65 1007.3
20260504175504 19 223 9.7 24.1 0.00 0.00 0.00 65 1007.4
20260504175005 19 196 11.3 27.4 0.00 0.00 0.00 63 1007.2
20260504174504 19 213 8.0 14.5 0.00 0.00 0.00 64 1007.0
20260504174005 19 187 9.7 19.3 0.00 0.00 0.00 63 1007.0
20260504173004 20 196 9.7 19.3 0.00 0.00 0.00 64 1006.7
20260504172504 20 218 8.0 20.9 0.00 0.00 0.00 64 1006.7
20260504172005 20 215 11.3 19.3 0.00 0.00 0.00 63 1006.6
20260504171005 20 147 8.0 24.1 0.00 0.00 0.00 66 1006.5
20260504170504 20 145 8.0 24.1 0.00 0.00 0.00 67 1006.5
20260504151004 17 226 4.8 11.3 0.00 0.00 0.00 69 1007.5
20260504150504 17 213 4.8 12.9 0.00 0.00 0.00 69 1007.4
20260504141005 15 229 8.0 20.9 0.00 0.00 0.00 71 1007.6
20260504140504 15 183 3.2 19.3 0.00 0.00 0.00 73 1007.7
20260504130504 12 206 3.2 9.7 0.00 0.00 0.00 77 1007.9